Location: Choisy
(48.7685°N, 2.4187°E)
Time: 03:34:48
(UTC+00:00)

CSL-04 Debris - Pass Details

Date: 24 October 2021
Orbit: 827 x 847 km, 98.9° (Epoch: 28 November)

Event Time Altitude Azimuth Distance (km) Brightness Sun altitude
Exits shadow 18:44:17 28° 141° (SE) 1,506 5.1 -20.5°
Maximum altitude 18:47:05 62° 70° (ENE) 934 4.1 -20.9°
Drops below altitude 10° 18:52:26 10° 351° (N) 2,458 6.8 -21.8°
Sets 18:54:50 0° 348° (NNW) 3,399 7.6 -22.2°
